This is the latest recevied weather packets stored in our database for station/object K0CVS. If no packets are shown the sender has not sent any weather packets the latest 10 day(s).
| Time | Temp. | Humidity | Pressure | Rain* | Wind** | Luminosity | Snow |
|---|---|---|---|---|---|---|---|
| 1777159863 | 22.78° C | 53% | 1008.1 hPa | 0 mm | - | 21 W/m² | - |
| 1777159559 | 22.78° C | 53% | 1008.3 hPa | 0 mm | - | 22 W/m² | - |
| 1777159256 | 22.78° C | 53% | 1008.4 hPa | 0 mm | - | 35 W/m² | - |
| 1777158952 | 23.33° C | 52% | 1008.4 hPa | 0 mm | - | 51 W/m² | - |
| 1777158652 | 23.33° C | 52% | 1008.6 hPa | 0 mm | - | 49 W/m² | - |
| 1777158347 | 23.33° C | 51% | 1008.6 hPa | 0 mm | - | 45 W/m² | - |
| 1777158044 | 23.33° C | 51% | 1008.6 hPa | 0 mm | - | 55 W/m² | - |
| 1777157744 | 23.33° C | 51% | 1008.8 hPa | 0 mm | - | 48 W/m² | - |
| 1777157440 | 23.33° C | 50% | 1008.8 hPa | 0 mm | - | 42 W/m² | - |
| 1777157136 | 23.33° C | 50% | 1009 hPa | 0 mm | - | 43 W/m² | - |
| 1777156832 | 23.33° C | 50% | 1009 hPa | 0 mm | - | 60 W/m² | - |
| 1777156532 | 23.33° C | 50% | 1009.2 hPa | 0 mm | - | 58 W/m² | - |
| 1777156229 | 23.33° C | 51% | 1009.2 hPa | 0 mm | - | 40 W/m² | - |
| 1777155925 | 23.33° C | 50% | 1009.2 hPa | 0 mm | - | 47 W/m² | - |
| 1777155620 | 23.33° C | 50% | 1009.2 hPa | 0 mm | - | 46 W/m² | - |
| 1777155317 | 23.89° C | 48% | 1009.2 hPa | 0 mm | - | 47 W/m² | - |
| 1777155015 | 23.89° C | 50% | 1009.4 hPa | 0 mm | - | 71 W/m² | - |
| 1777154712 | 23.89° C | 49% | 1009 hPa | 0 mm | - | 78 W/m² | - |
| 1777154408 | 23.89° C | 48% | 1009.4 hPa | 0 mm | - | 87 W/m² | - |
| 1777154103 | 23.89° C | 48% | 1009.3 hPa | 0 mm | - | 97 W/m² | - |
| 1777153799 | 23.89° C | 50% | 1009.3 hPa | 0 mm | - | 91 W/m² | - |
| 1777153496 | 23.89° C | 51% | 1009.3 hPa | 0 mm | - | 73 W/m² | - |
| 1777153192 | 23.89° C | 50% | 1009.3 hPa | 0 mm | - | 64 W/m² | - |
| 1777152889 | 23.89° C | 49% | 1009.2 hPa | 0 mm | - | 70 W/m² | - |
| 1777152585 | 23.89° C | 49% | 1009.3 hPa | 0 mm | - | 82 W/m² | - |
* Rain latest hour (hover to see other rain measurements)
** Current wind speed in m/s (hover to see current wind gust speed)